owner,sensor,date,latitude,longitude,air_pressure(mBar),qcFlag 
WAVCIS,ioos:station:WAVCIS:CSI09:1,2016-12-01T00:00:00Z,29.1015,-89.9782,1013.14,11111222 
WAVCIS,ioos:station:WAVCIS:CSI09:1,2016-12-01T01:00:00Z,29.1015,-89.9782,1014.07,11111222 
WAVCIS,ioos:station:WAVCIS:CSI09:1,2016-12-01T02:00:00Z,29.1015,-89.9782,1014.58,11111222 
WAVCIS,ioos:station:WAVCIS:CSI09:1,2016-12-01T03:00:00Z,29.1015,-89.9782,1015.1,11111222 
WAVCIS,ioos:station:WAVCIS:CSI09:1,2016-12-01T04:00:00Z,29.1015,-89.9782,1015.64,11111222 
WAVCIS,ioos:station:WAVCIS:CSI09:1,2016-12-01T05:00:00Z,29.1015,-89.9782,1016.1,11111222 
WAVCIS,ioos:station:WAVCIS:CSI09:1,2016-12-01T06:00:00Z,29.1015,-89.9782,1015.76,11111222 
WAVCIS,ioos:station:WAVCIS:CSI09:1,2016-12-01T07:00:00Z,29.1015,-89.9782,1016.13,11111222 
WAVCIS,ioos:station:WAVCIS:CSI09:1,2016-12-01T08:00:00Z,29.1015,-89.9782,1016.36,11111222 
WAVCIS,ioos:station:WAVCIS:CSI09:1,2016-12-01T09:00:00Z,29.1015,-89.9782,1016.44,11111222 
WAVCIS,ioos:station:WAVCIS:CSI09:1,2016-12-01T10:00:00Z,29.1015,-89.9782,1016.65,11111222 
WAVCIS,ioos:station:WAVCIS:CSI09:1,2016-12-01T11:00:00Z,29.1015,-89.9782,1016.93,11111222 
WAVCIS,ioos:station:WAVCIS:CSI09:1,2016-12-01T12:00:00Z,29.1015,-89.9782,1017.53,11111222 
WAVCIS,ioos:station:WAVCIS:CSI09:1,2016-12-01T13:00:00Z,29.1015,-89.9782,1018.06,11111222 
WAVCIS,ioos:station:WAVCIS:CSI09:1,2016-12-01T14:00:00Z,29.1015,-89.9782,1018.8,11111222 
WAVCIS,ioos:station:WAVCIS:CSI09:1,2016-12-01T15:00:00Z,29.1015,-89.9782,1019.51,11111222 
WAVCIS,ioos:station:WAVCIS:CSI09:1,2016-12-01T16:00:00Z,29.1015,-89.9782,1019.78,11111222 
WAVCIS,ioos:station:WAVCIS:CSI09:1,2016-12-01T17:00:00Z,29.1015,-89.9782,1019.85,11111222 
WAVCIS,ioos:station:WAVCIS:CSI09:1,2016-12-01T18:00:00Z,29.1015,-89.9782,1019.0,11111222 
WAVCIS,ioos:station:WAVCIS:CSI09:1,2016-12-01T19:00:00Z,29.1015,-89.9782,1018.72,11111222 
WAVCIS,ioos:station:WAVCIS:CSI09:1,2016-12-01T20:00:00Z,29.1015,-89.9782,1018.27,11111222 
WAVCIS,ioos:station:WAVCIS:CSI09:1,2016-12-01T21:00:00Z,29.1015,-89.9782,1018.16,11111222 
WAVCIS,ioos:station:WAVCIS:CSI09:1,2016-12-01T22:00:00Z,29.1015,-89.9782,1017.95,11111222 
WAVCIS,ioos:station:WAVCIS:CSI09:1,2016-12-01T23:00:00Z,29.1015,-89.9782,1017.85,11111222 
WAVCIS,ioos:station:WAVCIS:CSI09:1,2016-12-02T00:00:00Z,29.1015,-89.9782,1017.9,11111222 
WAVCIS,ioos:station:WAVCIS:CSI09:1,2016-12-02T01:00:00Z,29.1015,-89.9782,1018.53,11111222 
WAVCIS,ioos:station:WAVCIS:CSI09:1,2016-12-02T02:00:00Z,29.1015,-89.9782,1018.66,11111222 
WAVCIS,ioos:station:WAVCIS:CSI09:1,2016-12-02T03:00:00Z,29.1015,-89.9782,1018.5,11111222 
WAVCIS,ioos:station:WAVCIS:CSI09:1,2016-12-02T04:00:00Z,29.1015,-89.9782,1018.73,11111222 
WAVCIS,ioos:station:WAVCIS:CSI09:1,2016-12-02T05:00:00Z,29.1015,-89.9782,1018.88,11111222 
WAVCIS,ioos:station:WAVCIS:CSI09:1,2016-12-02T06:00:00Z,29.1015,-89.9782,1019.08,11111222 
WAVCIS,ioos:station:WAVCIS:CSI09:1,2016-12-02T07:00:00Z,29.1015,-89.9782,1018.98,11111222 
WAVCIS,ioos:station:WAVCIS:CSI09:1,2016-12-02T08:00:00Z,29.1015,-89.9782,1018.97,11111222 
WAVCIS,ioos:station:WAVCIS:CSI09:1,2016-12-02T09:00:00Z,29.1015,-89.9782,1019.19,11111222 
WAVCIS,ioos:station:WAVCIS:CSI09:1,2016-12-02T10:00:00Z,29.1015,-89.9782,1018.89,11111222 
WAVCIS,ioos:station:WAVCIS:CSI09:1,2016-12-02T11:00:00Z,29.1015,-89.9782,1019.0,11111222 
WAVCIS,ioos:station:WAVCIS:CSI09:1,2016-12-02T12:00:00Z,29.1015,-89.9782,1019.88,11111222 
WAVCIS,ioos:station:WAVCIS:CSI09:1,2016-12-02T13:00:00Z,29.1015,-89.9782,1020.18,11111222 
WAVCIS,ioos:station:WAVCIS:CSI09:1,2016-12-02T14:00:00Z,29.1015,-89.9782,1020.73,11111222 
WAVCIS,ioos:station:WAVCIS:CSI09:1,2016-12-02T15:00:00Z,29.1015,-89.9782,1021.2,11111222 
WAVCIS,ioos:station:WAVCIS:CSI09:1,2016-12-02T16:00:00Z,29.1015,-89.9782,1021.87,11111222 
WAVCIS,ioos:station:WAVCIS:CSI09:1,2016-12-02T17:00:00Z,29.1015,-89.9782,1021.6,11111222 
WAVCIS,ioos:station:WAVCIS:CSI09:1,2016-12-02T18:00:00Z,29.1015,-89.9782,1020.64,11111222 
WAVCIS,ioos:station:WAVCIS:CSI09:1,2016-12-02T19:00:00Z,29.1015,-89.9782,1019.76,11111222 
WAVCIS,ioos:station:WAVCIS:CSI09:1,2016-12-02T20:00:00Z,29.1015,-89.9782,1019.14,11111222 
WAVCIS,ioos:station:WAVCIS:CSI09:1,2016-12-02T21:00:00Z,29.1015,-89.9782,1019.19,11111222 
WAVCIS,ioos:station:WAVCIS:CSI09:1,2016-12-02T22:00:00Z,29.1015,-89.9782,1020.21,11111222 
WAVCIS,ioos:station:WAVCIS:CSI09:1,2016-12-02T23:00:00Z,29.1015,-89.9782,1019.69,11111222 
WAVCIS,ioos:station:WAVCIS:CSI09:1,2016-12-03T00:00:00Z,29.1015,-89.9782,1019.46,11111222 
WAVCIS,ioos:station:WAVCIS:CSI09:1,2016-12-03T01:00:00Z,29.1015,-89.9782,1019.63,11111222 
WAVCIS,ioos:station:WAVCIS:CSI09:1,2016-12-03T02:00:00Z,29.1015,-89.9782,1020.66,11111222 
WAVCIS,ioos:station:WAVCIS:CSI09:1,2016-12-03T03:00:00Z,29.1015,-89.9782,1020.37,11111222 
WAVCIS,ioos:station:WAVCIS:CSI09:1,2016-12-03T04:00:00Z,29.1015,-89.9782,1020.63,11111222 
WAVCIS,ioos:station:WAVCIS:CSI09:1,2016-12-03T05:00:00Z,29.1015,-89.9782,1020.62,11111222 
WAVCIS,ioos:station:WAVCIS:CSI09:1,2016-12-03T06:00:00Z,29.1015,-89.9782,1019.72,11111222 
WAVCIS,ioos:station:WAVCIS:CSI09:1,2016-12-03T07:00:00Z,29.1015,-89.9782,1019.1,11111222 
WAVCIS,ioos:station:WAVCIS:CSI09:1,2016-12-03T08:00:00Z,29.1015,-89.9782,1019.08,11111222 
WAVCIS,ioos:station:WAVCIS:CSI09:1,2016-12-03T09:00:00Z,29.1015,-89.9782,1018.21,11111222 
WAVCIS,ioos:station:WAVCIS:CSI09:1,2016-12-03T10:00:00Z,29.1015,-89.9782,1017.18,11111222 
WAVCIS,ioos:station:WAVCIS:CSI09:1,2016-12-03T11:00:00Z,29.1015,-89.9782,1017.13,11111222 
WAVCIS,ioos:station:WAVCIS:CSI09:1,2016-12-03T12:00:00Z,29.1015,-89.9782,1017.44,11111222 
WAVCIS,ioos:station:WAVCIS:CSI09:1,2016-12-03T13:00:00Z,29.1015,-89.9782,1017.21,11111222 
WAVCIS,ioos:station:WAVCIS:CSI09:1,2016-12-03T14:00:00Z,29.1015,-89.9782,1017.88,11111222 
WAVCIS,ioos:station:WAVCIS:CSI09:1,2016-12-03T15:00:00Z,29.1015,-89.9782,1018.15,11111222 
WAVCIS,ioos:station:WAVCIS:CSI09:1,2016-12-03T16:00:00Z,29.1015,-89.9782,1018.53,11111222 
WAVCIS,ioos:station:WAVCIS:CSI09:1,2016-12-03T17:00:00Z,29.1015,-89.9782,1017.76,11111222 
WAVCIS,ioos:station:WAVCIS:CSI09:1,2016-12-03T18:00:00Z,29.1015,-89.9782,1015.98,11111222 
WAVCIS,ioos:station:WAVCIS:CSI09:1,2016-12-03T19:00:00Z,29.1015,-89.9782,1014.8,11111222 
WAVCIS,ioos:station:WAVCIS:CSI09:1,2016-12-03T20:00:00Z,29.1015,-89.9782,1013.78,11111222 
WAVCIS,ioos:station:WAVCIS:CSI09:1,2016-12-03T21:00:00Z,29.1015,-89.9782,1013.58,11111222 
WAVCIS,ioos:station:WAVCIS:CSI09:1,2016-12-03T22:00:00Z,29.1015,-89.9782,1013.92,11111222 
WAVCIS,ioos:station:WAVCIS:CSI09:1,2016-12-03T23:00:00Z,29.1015,-89.9782,1013.95,11111222 
WAVCIS,ioos:station:WAVCIS:CSI09:1,2016-12-04T00:00:00Z,29.1015,-89.9782,1014.05,11111222 
WAVCIS,ioos:station:WAVCIS:CSI09:1,2016-12-04T01:00:00Z,29.1015,-89.9782,1013.92,11111222 
WAVCIS,ioos:station:WAVCIS:CSI09:1,2016-12-04T02:00:00Z,29.1015,-89.9782,1013.84,11111222 
WAVCIS,ioos:station:WAVCIS:CSI09:1,2016-12-04T03:00:00Z,29.1015,-89.9782,1013.83,11111222 
WAVCIS,ioos:station:WAVCIS:CSI09:1,2016-12-04T04:00:00Z,29.1015,-89.9782,1013.11,11111222 
WAVCIS,ioos:station:WAVCIS:CSI09:1,2016-12-04T05:00:00Z,29.1015,-89.9782,1012.55,11111222 
WAVCIS,ioos:station:WAVCIS:CSI09:1,2016-12-04T06:00:00Z,29.1015,-89.9782,1012.29,11111222 
WAVCIS,ioos:station:WAVCIS:CSI09:1,2016-12-04T07:00:00Z,29.1015,-89.9782,1011.4,11111222 
WAVCIS,ioos:station:WAVCIS:CSI09:1,2016-12-04T08:00:00Z,29.1015,-89.9782,1011.35,11111222 
WAVCIS,ioos:station:WAVCIS:CSI09:1,2016-12-04T09:00:00Z,29.1015,-89.9782,1011.31,11111222 
WAVCIS,ioos:station:WAVCIS:CSI09:1,2016-12-04T10:00:00Z,29.1015,-89.9782,1010.86,11111222 
WAVCIS,ioos:station:WAVCIS:CSI09:1,2016-12-04T11:00:00Z,29.1015,-89.9782,1011.25,11111222 
WAVCIS,ioos:station:WAVCIS:CSI09:1,2016-12-04T12:00:00Z,29.1015,-89.9782,1011.54,11111222 
WAVCIS,ioos:station:WAVCIS:CSI09:1,2016-12-04T13:00:00Z,29.1015,-89.9782,1011.36,11111222 
WAVCIS,ioos:station:WAVCIS:CSI09:1,2016-12-04T14:00:00Z,29.1015,-89.9782,1011.78,11111222 
WAVCIS,ioos:station:WAVCIS:CSI09:1,2016-12-04T15:00:00Z,29.1015,-89.9782,1012.61,11111222 
WAVCIS,ioos:station:WAVCIS:CSI09:1,2016-12-04T16:00:00Z,29.1015,-89.9782,1012.84,11111222 
WAVCIS,ioos:station:WAVCIS:CSI09:1,2016-12-04T17:00:00Z,29.1015,-89.9782,1012.53,11111222 
WAVCIS,ioos:station:WAVCIS:CSI09:1,2016-12-04T18:00:00Z,29.1015,-89.9782,1011.54,11111222 
WAVCIS,ioos:station:WAVCIS:CSI09:1,2016-12-04T19:00:00Z,29.1015,-89.9782,1011.01,11111222 
WAVCIS,ioos:station:WAVCIS:CSI09:1,2016-12-04T20:00:00Z,29.1015,-89.9782,1010.22,11111222 
WAVCIS,ioos:station:WAVCIS:CSI09:1,2016-12-04T21:00:00Z,29.1015,-89.9782,1010.33,11111222 
WAVCIS,ioos:station:WAVCIS:CSI09:1,2016-12-04T22:00:00Z,29.1015,-89.9782,1010.63,11111222 
WAVCIS,ioos:station:WAVCIS:CSI09:1,2016-12-04T23:00:00Z,29.1015,-89.9782,1011.46,11111222 
WAVCIS,ioos:station:WAVCIS:CSI09:1,2016-12-05T00:00:00Z,29.1015,-89.9782,1013.16,11111222 
WAVCIS,ioos:station:WAVCIS:CSI09:1,2016-12-05T01:00:00Z,29.1015,-89.9782,1013.5,11111222 
WAVCIS,ioos:station:WAVCIS:CSI09:1,2016-12-05T02:00:00Z,29.1015,-89.9782,1013.97,11111222 
WAVCIS,ioos:station:WAVCIS:CSI09:1,2016-12-05T03:00:00Z,29.1015,-89.9782,1014.13,11111222 
WAVCIS,ioos:station:WAVCIS:CSI09:1,2016-12-05T04:00:00Z,29.1015,-89.9782,1013.74,11111222 
WAVCIS,ioos:station:WAVCIS:CSI09:1,2016-12-05T05:00:00Z,29.1015,-89.9782,1013.2,11111222 
WAVCIS,ioos:station:WAVCIS:CSI09:1,2016-12-05T06:00:00Z,29.1015,-89.9782,1012.27,11111222 
WAVCIS,ioos:station:WAVCIS:CSI09:1,2016-12-05T07:00:00Z,29.1015,-89.9782,1010.86,11111222 
WAVCIS,ioos:station:WAVCIS:CSI09:1,2016-12-05T08:00:00Z,29.1015,-89.9782,1010.1,11111222 
WAVCIS,ioos:station:WAVCIS:CSI09:1,2016-12-05T09:00:00Z,29.1015,-89.9782,1010.37,11111222 
WAVCIS,ioos:station:WAVCIS:CSI09:1,2016-12-05T10:00:00Z,29.1015,-89.9782,1010.08,11111222 
WAVCIS,ioos:station:WAVCIS:CSI09:1,2016-12-05T11:00:00Z,29.1015,-89.9782,1009.86,11111222 
WAVCIS,ioos:station:WAVCIS:CSI09:1,2016-12-05T12:00:00Z,29.1015,-89.9782,1010.45,11111222 
WAVCIS,ioos:station:WAVCIS:CSI09:1,2016-12-05T13:00:00Z,29.1015,-89.9782,1010.16,11111222 
WAVCIS,ioos:station:WAVCIS:CSI09:1,2016-12-05T14:00:00Z,29.1015,-89.9782,1009.8,11111222 
WAVCIS,ioos:station:WAVCIS:CSI09:1,2016-12-05T15:00:00Z,29.1015,-89.9782,1009.45,11111222 
WAVCIS,ioos:station:WAVCIS:CSI09:1,2016-12-05T16:00:00Z,29.1015,-89.9782,1008.59,11111222 
WAVCIS,ioos:station:WAVCIS:CSI09:1,2016-12-05T17:00:00Z,29.1015,-89.9782,1007.63,11111222 
WAVCIS,ioos:station:WAVCIS:CSI09:1,2016-12-05T18:00:00Z,29.1015,-89.9782,1006.544,11111222 
WAVCIS,ioos:station:WAVCIS:CSI09:1,2016-12-05T19:00:00Z,29.1015,-89.9782,1005.831,11111222 
WAVCIS,ioos:station:WAVCIS:CSI09:1,2016-12-05T20:00:00Z,29.1015,-89.9782,1005.553,11111222 
WAVCIS,ioos:station:WAVCIS:CSI09:1,2016-12-05T21:00:00Z,29.1015,-89.9782,1005.858,11111222 
WAVCIS,ioos:station:WAVCIS:CSI09:1,2016-12-05T22:00:00Z,29.1015,-89.9782,1005.738,11111222 
WAVCIS,ioos:station:WAVCIS:CSI09:1,2016-12-05T23:00:00Z,29.1015,-89.9782,1005.465,11111222 
WAVCIS,ioos:station:WAVCIS:CSI09:1,2016-12-06T00:00:00Z,29.1015,-89.9782,1005.352,11111222 
WAVCIS,ioos:station:WAVCIS:CSI09:1,2016-12-06T01:00:00Z,29.1015,-89.9782,1005.22,11111222 
WAVCIS,ioos:station:WAVCIS:CSI09:1,2016-12-06T02:00:00Z,29.1015,-89.9782,1004.669,11111222 
WAVCIS,ioos:station:WAVCIS:CSI09:1,2016-12-06T03:00:00Z,29.1015,-89.9782,1005.67,11111222 
WAVCIS,ioos:station:WAVCIS:CSI09:1,2016-12-06T04:00:00Z,29.1015,-89.9782,1005.876,11111222 
WAVCIS,ioos:station:WAVCIS:CSI09:1,2016-12-06T05:00:00Z,29.1015,-89.9782,1005.692,11111222 
WAVCIS,ioos:station:WAVCIS:CSI09:1,2016-12-06T06:00:00Z,29.1015,-89.9782,1006.048,11111222 
WAVCIS,ioos:station:WAVCIS:CSI09:1,2016-12-06T07:00:00Z,29.1015,-89.9782,1006.44,11111222 
WAVCIS,ioos:station:WAVCIS:CSI09:1,2016-12-06T08:00:00Z,29.1015,-89.9782,1007.067,11111222 
WAVCIS,ioos:station:WAVCIS:CSI09:1,2016-12-06T09:00:00Z,29.1015,-89.9782,1007.5,11111222 
WAVCIS,ioos:station:WAVCIS:CSI09:1,2016-12-06T10:00:00Z,29.1015,-89.9782,1008.21,11111222 
WAVCIS,ioos:station:WAVCIS:CSI09:1,2016-12-06T11:00:00Z,29.1015,-89.9782,1009.0,11111222 
WAVCIS,ioos:station:WAVCIS:CSI09:1,2016-12-06T12:00:00Z,29.1015,-89.9782,1010.05,11111222 
WAVCIS,ioos:station:WAVCIS:CSI09:1,2016-12-06T13:00:00Z,29.1015,-89.9782,1010.91,11111222 
WAVCIS,ioos:station:WAVCIS:CSI09:1,2016-12-06T14:00:00Z,29.1015,-89.9782,1012.04,11111222 
WAVCIS,ioos:station:WAVCIS:CSI09:1,2016-12-06T15:00:00Z,29.1015,-89.9782,1013.12,11111222 
WAVCIS,ioos:station:WAVCIS:CSI09:1,2016-12-06T16:00:00Z,29.1015,-89.9782,1013.7,11111222 
WAVCIS,ioos:station:WAVCIS:CSI09:1,2016-12-06T17:00:00Z,29.1015,-89.9782,1013.74,11111222 
WAVCIS,ioos:station:WAVCIS:CSI09:1,2016-12-06T18:00:00Z,29.1015,-89.9782,1013.26,11111222 
WAVCIS,ioos:station:WAVCIS:CSI09:1,2016-12-06T19:00:00Z,29.1015,-89.9782,1012.6,11111222 
WAVCIS,ioos:station:WAVCIS:CSI09:1,2016-12-06T20:00:00Z,29.1015,-89.9782,1012.55,11111222 
WAVCIS,ioos:station:WAVCIS:CSI09:1,2016-12-06T21:00:00Z,29.1015,-89.9782,1012.5,11111222 
WAVCIS,ioos:station:WAVCIS:CSI09:1,2016-12-06T22:00:00Z,29.1015,-89.9782,1013.02,11111222 
WAVCIS,ioos:station:WAVCIS:CSI09:1,2016-12-06T23:00:00Z,29.1015,-89.9782,1013.64,11111222 
WAVCIS,ioos:station:WAVCIS:CSI09:1,2016-12-07T00:00:00Z,29.1015,-89.9782,1014.52,11111222 
WAVCIS,ioos:station:WAVCIS:CSI09:1,2016-12-07T01:00:00Z,29.1015,-89.9782,1015.03,11111222 
WAVCIS,ioos:station:WAVCIS:CSI09:1,2016-12-07T02:00:00Z,29.1015,-89.9782,1015.8,11111222 
WAVCIS,ioos:station:WAVCIS:CSI09:1,2016-12-07T03:00:00Z,29.1015,-89.9782,1016.12,11111222 
WAVCIS,ioos:station:WAVCIS:CSI09:1,2016-12-07T04:00:00Z,29.1015,-89.9782,1015.95,11111222 
WAVCIS,ioos:station:WAVCIS:CSI09:1,2016-12-07T05:00:00Z,29.1015,-89.9782,1015.8,11111222 
WAVCIS,ioos:station:WAVCIS:CSI09:1,2016-12-07T06:00:00Z,29.1015,-89.9782,1015.89,11111222 
WAVCIS,ioos:station:WAVCIS:CSI09:1,2016-12-07T07:00:00Z,29.1015,-89.9782,1015.69,11111222 
WAVCIS,ioos:station:WAVCIS:CSI09:1,2016-12-07T08:00:00Z,29.1015,-89.9782,1015.73,11111222 
WAVCIS,ioos:station:WAVCIS:CSI09:1,2016-12-07T09:00:00Z,29.1015,-89.9782,1016.14,11111222 
WAVCIS,ioos:station:WAVCIS:CSI09:1,2016-12-07T10:00:00Z,29.1015,-89.9782,1016.24,11111222 
WAVCIS,ioos:station:WAVCIS:CSI09:1,2016-12-07T11:00:00Z,29.1015,-89.9782,1016.54,11111222 
WAVCIS,ioos:station:WAVCIS:CSI09:1,2016-12-07T12:00:00Z,29.1015,-89.9782,1016.99,11111222 
WAVCIS,ioos:station:WAVCIS:CSI09:1,2016-12-07T13:00:00Z,29.1015,-89.9782,1017.63,11111222 
WAVCIS,ioos:station:WAVCIS:CSI09:1,2016-12-07T14:00:00Z,29.1015,-89.9782,1018.21,11111222 
WAVCIS,ioos:station:WAVCIS:CSI09:1,2016-12-07T15:00:00Z,29.1015,-89.9782,1018.91,11111222 
WAVCIS,ioos:station:WAVCIS:CSI09:1,2016-12-07T16:00:00Z,29.1015,-89.9782,1019.25,11111222 
WAVCIS,ioos:station:WAVCIS:CSI09:1,2016-12-07T17:00:00Z,29.1015,-89.9782,1019.06,11111222 
WAVCIS,ioos:station:WAVCIS:CSI09:1,2016-12-07T18:00:00Z,29.1015,-89.9782,1018.3,11111222 
WAVCIS,ioos:station:WAVCIS:CSI09:1,2016-12-07T19:00:00Z,29.1015,-89.9782,1017.41,11111222 
WAVCIS,ioos:station:WAVCIS:CSI09:1,2016-12-07T20:00:00Z,29.1015,-89.9782,1017.18,11111222 
WAVCIS,ioos:station:WAVCIS:CSI09:1,2016-12-07T21:00:00Z,29.1015,-89.9782,1017.15,11111222 
WAVCIS,ioos:station:WAVCIS:CSI09:1,2016-12-07T22:00:00Z,29.1015,-89.9782,1017.33,11111222 
WAVCIS,ioos:station:WAVCIS:CSI09:1,2016-12-07T23:00:00Z,29.1015,-89.9782,1017.72,11111222 
WAVCIS,ioos:station:WAVCIS:CSI09:1,2016-12-08T00:00:00Z,29.1015,-89.9782,1018.19,11111222 
WAVCIS,ioos:station:WAVCIS:CSI09:1,2016-12-08T01:00:00Z,29.1015,-89.9782,1018.68,11111222 
WAVCIS,ioos:station:WAVCIS:CSI09:1,2016-12-08T02:00:00Z,29.1015,-89.9782,1019.02,11111222 
WAVCIS,ioos:station:WAVCIS:CSI09:1,2016-12-08T03:00:00Z,29.1015,-89.9782,1019.37,11111222 
WAVCIS,ioos:station:WAVCIS:CSI09:1,2016-12-08T04:00:00Z,29.1015,-89.9782,1019.83,11111222 
WAVCIS,ioos:station:WAVCIS:CSI09:1,2016-12-08T05:00:00Z,29.1015,-89.9782,1020.18,11111222 
WAVCIS,ioos:station:WAVCIS:CSI09:1,2016-12-08T06:00:00Z,29.1015,-89.9782,1020.11,11111222 
WAVCIS,ioos:station:WAVCIS:CSI09:1,2016-12-08T07:00:00Z,29.1015,-89.9782,1020.22,11111222 
WAVCIS,ioos:station:WAVCIS:CSI09:1,2016-12-08T08:00:00Z,29.1015,-89.9782,1020.22,11111222 
WAVCIS,ioos:station:WAVCIS:CSI09:1,2016-12-08T09:00:00Z,29.1015,-89.9782,1019.93,11111222 
WAVCIS,ioos:station:WAVCIS:CSI09:1,2016-12-08T10:00:00Z,29.1015,-89.9782,1019.46,11111222 
WAVCIS,ioos:station:WAVCIS:CSI09:1,2016-12-08T11:00:00Z,29.1015,-89.9782,1019.49,11111222 
WAVCIS,ioos:station:WAVCIS:CSI09:1,2016-12-08T12:00:00Z,29.1015,-89.9782,1020.82,11111222 
WAVCIS,ioos:station:WAVCIS:CSI09:1,2016-12-08T13:00:00Z,29.1015,-89.9782,1021.44,11111222 
WAVCIS,ioos:station:WAVCIS:CSI09:1,2016-12-08T14:00:00Z,29.1015,-89.9782,1022.75,11111222 
WAVCIS,ioos:station:WAVCIS:CSI09:1,2016-12-08T15:00:00Z,29.1015,-89.9782,1023.63,11111222 
WAVCIS,ioos:station:WAVCIS:CSI09:1,2016-12-08T16:00:00Z,29.1015,-89.9782,1024.4,11111222 
WAVCIS,ioos:station:WAVCIS:CSI09:1,2016-12-08T17:00:00Z,29.1015,-89.9782,1024.15,11111222 
WAVCIS,ioos:station:WAVCIS:CSI09:1,2016-12-08T18:00:00Z,29.1015,-89.9782,1023.09,11111222 
WAVCIS,ioos:station:WAVCIS:CSI09:1,2016-12-08T19:00:00Z,29.1015,-89.9782,1022.64,11111222 
WAVCIS,ioos:station:WAVCIS:CSI09:1,2016-12-08T20:00:00Z,29.1015,-89.9782,1022.94,11111222 
WAVCIS,ioos:station:WAVCIS:CSI09:1,2016-12-08T21:00:00Z,29.1015,-89.9782,1023.72,11111222 
WAVCIS,ioos:station:WAVCIS:CSI09:1,2016-12-08T22:00:00Z,29.1015,-89.9782,1025.01,11111222 
WAVCIS,ioos:station:WAVCIS:CSI09:1,2016-12-08T23:00:00Z,29.1015,-89.9782,1025.35,11111222 
WAVCIS,ioos:station:WAVCIS:CSI09:1,2016-12-09T00:00:00Z,29.1015,-89.9782,1025.65,11111222 
WAVCIS,ioos:station:WAVCIS:CSI09:1,2016-12-09T01:00:00Z,29.1015,-89.9782,1026.32,11111222 
WAVCIS,ioos:station:WAVCIS:CSI09:1,2016-12-09T02:00:00Z,29.1015,-89.9782,1027.65,11111222 
WAVCIS,ioos:station:WAVCIS:CSI09:1,2016-12-09T03:00:00Z,29.1015,-89.9782,1027.49,11111222 
WAVCIS,ioos:station:WAVCIS:CSI09:1,2016-12-09T04:00:00Z,29.1015,-89.9782,1027.04,11111222 
WAVCIS,ioos:station:WAVCIS:CSI09:1,2016-12-09T05:00:00Z,29.1015,-89.9782,1027.49,11111222 
WAVCIS,ioos:station:WAVCIS:CSI09:1,2016-12-09T06:00:00Z,29.1015,-89.9782,1028.56,11111222 
WAVCIS,ioos:station:WAVCIS:CSI09:1,2016-12-09T07:00:00Z,29.1015,-89.9782,1027.93,11111222 
WAVCIS,ioos:station:WAVCIS:CSI09:1,2016-12-09T08:00:00Z,29.1015,-89.9782,1028.09,11111222 
WAVCIS,ioos:station:WAVCIS:CSI09:1,2016-12-09T09:00:00Z,29.1015,-89.9782,1028.65,11111222 
WAVCIS,ioos:station:WAVCIS:CSI09:1,2016-12-09T10:00:00Z,29.1015,-89.9782,1029.02,11111222 
WAVCIS,ioos:station:WAVCIS:CSI09:1,2016-12-09T11:00:00Z,29.1015,-89.9782,1028.81,11111222 
WAVCIS,ioos:station:WAVCIS:CSI09:1,2016-12-09T12:00:00Z,29.1015,-89.9782,1029.69,11111222 
WAVCIS,ioos:station:WAVCIS:CSI09:1,2016-12-09T13:00:00Z,29.1015,-89.9782,1030.36,11111222 
WAVCIS,ioos:station:WAVCIS:CSI09:1,2016-12-09T14:00:00Z,29.1015,-89.9782,1031.06,11111222 
WAVCIS,ioos:station:WAVCIS:CSI09:1,2016-12-09T15:00:00Z,29.1015,-89.9782,1031.33,11111222 
WAVCIS,ioos:station:WAVCIS:CSI09:1,2016-12-09T16:00:00Z,29.1015,-89.9782,1032.26,11111222 
WAVCIS,ioos:station:WAVCIS:CSI09:1,2016-12-09T17:00:00Z,29.1015,-89.9782,1031.99,11111222 
WAVCIS,ioos:station:WAVCIS:CSI09:1,2016-12-09T18:00:00Z,29.1015,-89.9782,1030.57,11111222 
WAVCIS,ioos:station:WAVCIS:CSI09:1,2016-12-09T19:00:00Z,29.1015,-89.9782,1030.13,11111222 
WAVCIS,ioos:station:WAVCIS:CSI09:1,2016-12-09T20:00:00Z,29.1015,-89.9782,1029.72,11111222 
WAVCIS,ioos:station:WAVCIS:CSI09:1,2016-12-09T21:00:00Z,29.1015,-89.9782,1029.59,11111222 
WAVCIS,ioos:station:WAVCIS:CSI09:1,2016-12-09T22:00:00Z,29.1015,-89.9782,1029.68,11111222 
WAVCIS,ioos:station:WAVCIS:CSI09:1,2016-12-09T23:00:00Z,29.1015,-89.9782,1029.77,11111222 
WAVCIS,ioos:station:WAVCIS:CSI09:1,2016-12-10T00:00:00Z,29.1015,-89.9782,1030.27,11111222 
WAVCIS,ioos:station:WAVCIS:CSI09:1,2016-12-10T01:00:00Z,29.1015,-89.9782,1030.46,11111222 
WAVCIS,ioos:station:WAVCIS:CSI09:1,2016-12-10T02:00:00Z,29.1015,-89.9782,1030.78,11111222 
WAVCIS,ioos:station:WAVCIS:CSI09:1,2016-12-10T03:00:00Z,29.1015,-89.9782,1030.86,11111222 
WAVCIS,ioos:station:WAVCIS:CSI09:1,2016-12-10T04:00:00Z,29.1015,-89.9782,1031.06,11111222 
WAVCIS,ioos:station:WAVCIS:CSI09:1,2016-12-10T05:00:00Z,29.1015,-89.9782,1031.4,11111222 
WAVCIS,ioos:station:WAVCIS:CSI09:1,2016-12-10T06:00:00Z,29.1015,-89.9782,1031.05,11111222 
WAVCIS,ioos:station:WAVCIS:CSI09:1,2016-12-10T07:00:00Z,29.1015,-89.9782,1030.71,11111222 
WAVCIS,ioos:station:WAVCIS:CSI09:1,2016-12-10T08:00:00Z,29.1015,-89.9782,1030.79,11111222 
WAVCIS,ioos:station:WAVCIS:CSI09:1,2016-12-10T09:00:00Z,29.1015,-89.9782,1030.81,11111222 
WAVCIS,ioos:station:WAVCIS:CSI09:1,2016-12-10T10:00:00Z,29.1015,-89.9782,1030.82,11111222 
WAVCIS,ioos:station:WAVCIS:CSI09:1,2016-12-10T11:00:00Z,29.1015,-89.9782,1030.69,11111222 
WAVCIS,ioos:station:WAVCIS:CSI09:1,2016-12-10T12:00:00Z,29.1015,-89.9782,1030.8,11111222 
WAVCIS,ioos:station:WAVCIS:CSI09:1,2016-12-10T13:00:00Z,29.1015,-89.9782,1030.8,11111222 
WAVCIS,ioos:station:WAVCIS:CSI09:1,2016-12-10T14:00:00Z,29.1015,-89.9782,1031.26,11111222 
WAVCIS,ioos:station:WAVCIS:CSI09:1,2016-12-10T15:00:00Z,29.1015,-89.9782,1031.66,11111222 
WAVCIS,ioos:station:WAVCIS:CSI09:1,2016-12-10T16:00:00Z,29.1015,-89.9782,1031.59,11111222 
WAVCIS,ioos:station:WAVCIS:CSI09:1,2016-12-10T17:00:00Z,29.1015,-89.9782,1031.02,11111222 
WAVCIS,ioos:station:WAVCIS:CSI09:1,2016-12-10T18:00:00Z,29.1015,-89.9782,1029.86,11111222 
WAVCIS,ioos:station:WAVCIS:CSI09:1,2016-12-10T19:00:00Z,29.1015,-89.9782,1029.11,11111222 
WAVCIS,ioos:station:WAVCIS:CSI09:1,2016-12-10T20:00:00Z,29.1015,-89.9782,1028.34,11111222 
WAVCIS,ioos:station:WAVCIS:CSI09:1,2016-12-10T21:00:00Z,29.1015,-89.9782,1028.1,11111222 
WAVCIS,ioos:station:WAVCIS:CSI09:1,2016-12-10T22:00:00Z,29.1015,-89.9782,1027.89,11111222 
WAVCIS,ioos:station:WAVCIS:CSI09:1,2016-12-10T23:00:00Z,29.1015,-89.9782,1027.79,11111222 
WAVCIS,ioos:station:WAVCIS:CSI09:1,2016-12-11T00:00:00Z,29.1015,-89.9782,1028.05,11111222 
WAVCIS,ioos:station:WAVCIS:CSI09:1,2016-12-11T01:00:00Z,29.1015,-89.9782,1027.89,11111222 
WAVCIS,ioos:station:WAVCIS:CSI09:1,2016-12-11T02:00:00Z,29.1015,-89.9782,1027.47,11111222 
WAVCIS,ioos:station:WAVCIS:CSI09:1,2016-12-11T03:00:00Z,29.1015,-89.9782,1027.25,11111222 
WAVCIS,ioos:station:WAVCIS:CSI09:1,2016-12-11T04:00:00Z,29.1015,-89.9782,1027.08,11111222 
WAVCIS,ioos:station:WAVCIS:CSI09:1,2016-12-11T05:00:00Z,29.1015,-89.9782,1026.66,11111222 
WAVCIS,ioos:station:WAVCIS:CSI09:1,2016-12-11T06:00:00Z,29.1015,-89.9782,1025.91,11111222 
WAVCIS,ioos:station:WAVCIS:CSI09:1,2016-12-11T07:00:00Z,29.1015,-89.9782,1025.31,11111222 
WAVCIS,ioos:station:WAVCIS:CSI09:1,2016-12-11T08:00:00Z,29.1015,-89.9782,1024.43,11111222 
WAVCIS,ioos:station:WAVCIS:CSI09:1,2016-12-11T09:00:00Z,29.1015,-89.9782,1023.88,11111222 
WAVCIS,ioos:station:WAVCIS:CSI09:1,2016-12-11T10:00:00Z,29.1015,-89.9782,1023.59,11111222 
WAVCIS,ioos:station:WAVCIS:CSI09:1,2016-12-11T11:00:00Z,29.1015,-89.9782,1023.1,11111222 
WAVCIS,ioos:station:WAVCIS:CSI09:1,2016-12-11T12:00:00Z,29.1015,-89.9782,1023.04,11111222 
WAVCIS,ioos:station:WAVCIS:CSI09:1,2016-12-11T13:00:00Z,29.1015,-89.9782,1022.99,11111222 
WAVCIS,ioos:station:WAVCIS:CSI09:1,2016-12-11T14:00:00Z,29.1015,-89.9782,1022.97,11111222 
WAVCIS,ioos:station:WAVCIS:CSI09:1,2016-12-11T15:00:00Z,29.1015,-89.9782,1023.33,11111222 
WAVCIS,ioos:station:WAVCIS:CSI09:1,2016-12-11T16:00:00Z,29.1015,-89.9782,1023.46,11111222 
WAVCIS,ioos:station:WAVCIS:CSI09:1,2016-12-11T17:00:00Z,29.1015,-89.9782,1022.76,11111222 
WAVCIS,ioos:station:WAVCIS:CSI09:1,2016-12-11T18:00:00Z,29.1015,-89.9782,1021.51,11111222 
WAVCIS,ioos:station:WAVCIS:CSI09:1,2016-12-11T19:00:00Z,29.1015,-89.9782,1020.3,11111222 
WAVCIS,ioos:station:WAVCIS:CSI09:1,2016-12-11T20:00:00Z,29.1015,-89.9782,1019.68,11111222 
WAVCIS,ioos:station:WAVCIS:CSI09:1,2016-12-11T21:00:00Z,29.1015,-89.9782,1018.83,11111222 
WAVCIS,ioos:station:WAVCIS:CSI09:1,2016-12-11T22:00:00Z,29.1015,-89.9782,1018.7,11111222 